EW7222 Weather Reports


time (UTC)temp
C
wind
direction
speed
KPH
gust
KPH
rain 1hr
cm
rain 24hr
cm
rain mn
cm
humidity
%
barometer
mb
20260506061545 19 189 4.8 9.7 0.00 0.00 0.00 84 1017.8
20260506060529 19 197 9.7 16.1 0.00 0.00 0.00 84 1017.9
20260506050432 19 222 3.2 6.4 0.00 0.00 0.00 85 1018.8
20260506044428 19 225 1.6 4.8 0.00 0.00 0.00 88 1018.9
20260506043528 19 180 3.2 4.8 0.00 0.00 0.00 89 1019.0
20260506042529 19 202 3.2 9.7 0.00 0.00 0.00 90 1019.2
20260506041530 19 180 4.8 8.0 0.00 0.00 0.00 89 1019.2
20260506041430 19 180 1.6 4.8 0.00 0.00 0.00 88 1019.2
20260506035514 18 180 1.6 6.4 0.00 0.00 0.00 87 1019.2
20260506034515 18 202 3.2 8.0 0.00 0.00 0.00 87 1019.2
20260506033515 19 202 3.2 4.8 0.00 0.00 0.00 86 1019.4
20260506032514 19 225 1.6 1.6 0.00 0.00 0.00 85 1019.3
20260506030515 19 209 6.4 9.7 0.00 0.00 0.00 87 1019.5
20260506025613 19 176 6.4 9.7 0.00 0.00 0.00 88 1019.3
20260506023615 19 170 3.2 6.4 0.00 0.00 0.00 87 1019.5
20260506022613 19 205 3.2 6.4 0.00 0.00 0.00 86 1019.4
20260506021614 19 201 3.2 8.0 0.00 0.00 0.00 85 1019.5
20260506020615 19 197 3.2 6.4 0.00 0.00 0.00 84 1019.4
20260506015714 19 191 3.2 8.0 0.00 0.00 0.00 83 1019.4
20260506014715 19 195 8.0 11.3 0.00 0.00 0.00 82 1019.2
20260506013714 20 184 6.4 11.3 0.00 0.00 0.00 82 1019.2
20260506011714 20 199 4.8 8.0 0.00 0.00 0.00 82 1019.0
20260506010813 20 190 1.6 8.0 0.00 0.00 0.00 81 1019.0
20260506005832 20 198 6.4 9.7 0.00 0.00 0.00 81 1019.2
20260506004914 20 197 3.2 8.0 0.00 0.00 0.00 81 1019.1
20260506004013 20 204 3.2 6.4 0.00 0.00 0.00 80 1018.9
20260506003015 20 206 3.2 8.0 0.00 0.00 0.00 80 1018.8
20260506001016 20 184 3.2 11.3 0.00 0.00 0.00 78 1018.9
20260506000013 20 227 3.2 9.7 0.00 0.00 0.00 77 1019.0
20260505235016 20 213 8.0 11.3 0.00 0.00 0.00 75 1019.0
20260505232116 21 219 8.0 16.1 0.00 0.00 0.00 73 1019.1
20260505231113 21 202 6.4 12.9 0.00 0.00 0.00 72 1018.9
20260505230115 21 219 8.0 14.5 0.00 0.00 0.00 71 1019.1
20260505223115 22 201 8.0 11.3 0.00 0.00 0.00 67 1018.9
20260505222113 22 217 4.8 14.5 0.00 0.00 0.00 67 1018.9
20260505221114 22 221 8.0 12.9 0.00 0.00 0.00 68 1018.9
20260505215116 22 188 11.3 17.7 0.00 0.00 0.00 69 1018.7
20260505214115 21 188 8.0 12.9 0.00 0.00 0.00 69 1018.8
20260505212213 21 199 8.0 16.1 0.00 0.00 0.00 70 1018.8
20260505210214 22 188 14.5 20.9 0.00 0.00 0.00 67 1018.8
20260505205215 22 192 12.9 20.9 0.00 0.00 0.00 67 1018.9
20260505204214 22 187 16.1 22.5 0.00 0.00 0.00 67 1019.0
20260505203216 22 192 14.5 17.7 0.00 0.00 0.00 66 1019.0
20260505202214 22 195 8.0 14.5 0.00 0.00 0.00 67 1019.2
20260505201215 22 191 11.3 16.1 0.00 0.00 0.00 66 1019.2
20260505200314 22 191 14.5 20.9 0.00 0.00 0.00 68 1019.2
20260505195413 22 191 11.3 17.7 0.00 0.00 0.00 68 1019.4
20260505194414 23 189 12.9 17.7 0.00 0.00 0.00 66 1019.4
20260505194329 23 181 11.3 17.7 0.00 0.00 0.00 66 1019.5
20260505192412 23 194 11.3 16.1 0.00 0.00 0.00 65 1019.8
20260505191414 23 201 8.0 12.9 0.00 0.00 0.00 66 1019.9
20260505190414 22 216 4.8 11.3 0.00 0.00 0.00 67 1020.0
20260505190314 22 204 6.4 9.7 0.00 0.00 0.00 67 1020.0
20260505184413 22 189 8.0 12.9 0.00 0.00 0.00 66 1020.1
20260505183414 22 194 4.8 11.3 0.00 0.00 0.00 67 1020.1
20260505182416 22 186 8.0 12.9 0.00 0.00 0.00 67 1020.1
20260505181430 22 194 9.7 12.9 0.00 0.00 0.00 65 1020.2
20260505175516 22 200 6.4 11.3 0.00 0.00 0.00 66 1020.2
20260505174514 22 178 0.0 6.4 0.00 0.00 0.00 67 1020.3
20260505173513 22 194 12.9 14.5 0.00 0.00 0.00 67 1020.4
20260505172612 22 193 11.3 16.1 0.00 0.00 0.00 66 1020.3
20260505171613 22 184 11.3 14.5 0.00 0.00 0.00 67 1020.4
20260505170519 22 169 4.8 11.3 0.00 0.00 0.00 67 1020.4
20260505165530 22 189 12.9 16.1 0.00 0.00 0.00 66 1020.4
20260505164614 23 196 9.7 12.9 0.00 0.00 0.00 64 1020.3
20260505163614 22 186 4.8 9.7 0.00 0.00 0.00 66 1020.5
20260505163529 22 202 3.2 6.4 0.00 0.00 0.00 66 1020.5
20260505161513 22 219 8.0 12.9 0.00 0.00 0.00 66 1020.8
20260505152713 22 230 6.4 9.7 0.00 0.00 0.00 64 1020.8
20260505151714 22 215 9.7 12.9 0.00 0.00 0.00 64 1020.8
20260505150713 21 203 3.2 8.0 0.00 0.00 0.00 66 1020.8
20260505130115 22 180 1.6 6.4 0.00 0.00 0.00 69 1020.3
20260505125012 22 202 1.6 4.8 0.00 0.00 0.00 70 1020.4
20260505124015 21 202 1.6 1.6 0.00 0.00 0.00 72 1020.4
20260505123013 21 225 0.0 3.2 0.00 0.00 0.00 74 1020.4
20260505121113 21 202 1.6 4.8 0.00 0.00 0.00 76 1020.1
20260505120112 20 202 1.6 6.4 0.00 0.00 0.00 80 1020.2
20260505115113 20 225 0.0 3.2 0.00 0.00 0.00 83 1020.3
20260505114116 19 202 1.6 4.8 0.00 0.00 0.00 86 1020.1
20260505113212 19 202 0.0 3.2 0.00 0.00 0.00 87 1020.1
20260505112112 18 202 0.0 0.0 0.00 0.00 0.00 89 1020.1
20260505111113 18 225 1.6 3.2 0.00 0.00 0.00 90 1020.0
20260505110114 18 225 0.0 1.6 0.00 0.00 0.00 90 1019.8
20260505102215 17 225 0.0 1.6 0.00 0.00 0.00 89 1019.4
20260505101214 17 225 1.6 1.6 0.00 0.00 0.00 89 1019.4
20260505094411 17 228 3.2 6.4 0.00 0.00 0.00 87 1019.0
20260505093411 17 225 1.6 4.8 0.00 0.00 0.00 87 1019.0
20260505091413 17 225 3.2 4.8 0.00 0.00 0.00 86 1018.8
20260505090413 17 225 1.6 3.2 0.00 0.00 0.00 86 1018.9
20260505085412 17 227 4.8 6.4 0.00 0.00 0.00 86 1018.8
20260505084429 17 228 3.2 6.4 0.00 0.00 0.00 85 1018.8
20260505082514 17 225 3.2 6.4 0.00 0.00 0.00 84 1018.8
20260505081513 17 225 4.8 6.4 0.00 0.00 0.00 84 1018.8
20260505080529 18 225 3.2 6.4 0.00 0.00 0.00 83 1018.6
20260505075528 18 229 4.8 6.4 0.00 0.00 0.00 83 1018.5
20260505074613 18 225 4.8 8.0 0.00 0.00 0.00 82 1018.4
20260505073612 18 225 3.2 8.0 0.00 0.00 0.00 82 1018.5
20260505072612 18 212 3.2 9.7 0.00 0.00 0.00 82 1018.3
20260505071612 18 218 6.4 11.3 0.00 0.00 0.00 81 1018.5
20260505070612 18 239 4.8 12.9 0.00 0.00 0.00 81 1018.3